| time (UTC) | temp C | wind direction | speed KPH | gust KPH | rain 1hr cm | rain 24hr cm | rain mn cm | humidity % | barometer mb |
| 20260510153039 | 25 | 78 | 3.2 | 6.4 | 0.00 | 2.24 | 0.00 | 77 | 1016.3 |
| 20260510151550 | 24 | 88 | 1.6 | 6.4 | 0.00 | 2.24 | 0.00 | 80 | 1016.0 |
| 20260510150100 | 24 | 337 | 1.6 | 4.8 | 0.00 | 2.24 | 0.00 | 82 | 1016.5 |
| 20260510144605 | 23 | 75 | 1.6 | 6.4 | 0.00 | 2.77 | 0.00 | 85 | 1016.5 |
| 20260510143110 | 22 | 98 | 1.6 | 4.8 | 0.00 | 2.77 | 0.00 | 85 | 1016.8 |
| 20260510141540 | 22 | 37 | 1.6 | 6.4 | 0.00 | 2.77 | 0.00 | 90 | 1016.6 |
| 20260510140047 | 21 | 24 | 1.6 | 4.8 | 0.00 | 2.77 | 0.00 | 95 | 1016.4 |
| 20260510134547 | 20 | 92 | 1.6 | 6.4 | 0.00 | 8.03 | 0.00 | 97 | 1016.2 |
| 20260510133048 | 20 | 57 | 0.0 | 3.2 | 0.00 | 8.03 | 0.00 | 97 | 1016.0 |
| 20260510131545 | 20 | 79 | 0.0 | 1.6 | 0.00 | 8.03 | 0.00 | 97 | 1016.1 |
| 20260510130047 | 19 | 81 | 1.6 | 3.2 | 0.00 | 8.03 | 0.00 | 97 | 1015.9 |
| 20260510124542 | 18 | 63 | 0.0 | 3.2 | 0.00 | 8.03 | 0.00 | 97 | 1015.8 |
| 20260510123045 | 18 | 0 | 0.0 | 1.6 | 0.00 | 8.03 | 0.00 | 97 | 1015.8 |
| 20260510121545 | 18 | 0 | 0.0 | 1.6 | 0.00 | 8.03 | 0.00 | 97 | 1015.3 |
| 20260510120046 | 18 | 0 | 0.0 | 1.6 | 0.00 | 8.03 | 0.00 | 97 | 1015.0 |
| 20260510114604 | 17 | 91 | 0.0 | 1.6 | 0.00 | 8.08 | 0.00 | 97 | 1014.8 |
| 20260510113055 | 17 | 0 | 0.0 | 1.6 | 0.00 | 8.08 | 0.00 | 97 | 1014.3 |
| 20260510111546 | 17 | 0 | 0.0 | 1.6 | 0.00 | 8.08 | 0.00 | 97 | 1014.1 |
| 20260510110043 | 17 | 0 | 0.0 | 1.6 | 0.00 | 8.08 | 0.00 | 97 | 1014.0 |
| 20260510104554 | 17 | 0 | 0.0 | 1.6 | 0.00 | 8.10 | 0.00 | 97 | 1013.8 |
| 20260510103040 | 17 | 0 | 0.0 | 1.6 | 0.00 | 8.10 | 0.00 | 97 | 1013.5 |
| 20260510101548 | 17 | 0 | 0.0 | 3.2 | 0.00 | 8.10 | 0.00 | 97 | 1013.5 |
| 20260510100058 | 17 | 0 | 0.0 | 1.6 | 0.00 | 8.10 | 0.00 | 97 | 1013.3 |
| 20260510094552 | 17 | 0 | 0.0 | 1.6 | 0.00 | 8.15 | 0.00 | 97 | 1013.0 |
| 20260510093044 | 17 | 136 | 0.0 | 1.6 | 0.00 | 8.15 | 0.00 | 97 | 1012.9 |
| 20260510091540 | 17 | 0 | 0.0 | 1.6 | 0.00 | 8.15 | 0.00 | 97 | 1013.0 |
| 20260510090039 | 18 | 0 | 0.0 | 1.6 | 0.00 | 8.15 | 0.00 | 97 | 1012.9 |
| 20260510084546 | 18 | 0 | 0.0 | 1.6 | 0.00 | 8.28 | 0.00 | 97 | 1012.8 |
| 20260510083045 | 18 | 0 | 0.0 | 1.6 | 0.00 | 8.28 | 0.00 | 97 | 1012.5 |
| 20260510081543 | 18 | 229 | 0.0 | 1.6 | 0.00 | 8.28 | 0.00 | 97 | 1012.4 |
| 20260510080044 | 18 | 0 | 0.0 | 1.6 | 0.00 | 8.28 | 0.00 | 97 | 1012.4 |
| 20260510074543 | 18 | 0 | 0.0 | 0.0 | 0.00 | 8.36 | 0.00 | 97 | 1012.3 |
| 20260510073048 | 18 | 111 | 0.0 | 1.6 | 0.00 | 8.36 | 0.00 | 97 | 1012.2 |
| 20260510071545 | 18 | 0 | 0.0 | 1.6 | 0.00 | 8.36 | 0.00 | 97 | 1012.3 |
| 20260510070103 | 18 | 202 | 0.0 | 1.6 | 0.00 | 8.36 | 0.00 | 97 | 1012.2 |
| 20260510064549 | 18 | 297 | 0.0 | 1.6 | 0.00 | 10.49 | 0.00 | 97 | 1012.7 |
| 20260510063044 | 18 | 0 | 0.0 | 1.6 | 0.00 | 10.49 | 0.00 | 97 | 1012.4 |
| 20260510061546 | 18 | 0 | 0.0 | 1.6 | 0.00 | 10.49 | 0.00 | 97 | 1012.4 |
| 20260510060048 | 18 | 0 | 0.0 | 1.6 | 0.00 | 10.49 | 0.00 | 97 | 1012.6 |
| 20260510054552 | 18 | 102 | 0.0 | 1.6 | 0.00 | 10.49 | 0.00 | 97 | 1012.6 |
| 20260510053043 | 18 | 0 | 0.0 | 0.0 | 0.00 | 10.49 | 0.00 | 97 | 1013.1 |
| 20260510051544 | 18 | 0 | 0.0 | 1.6 | 0.00 | 10.49 | 0.00 | 97 | 1012.8 |
| 20260510050044 | 19 | 0 | 0.0 | 1.6 | 0.00 | 10.49 | 0.00 | 97 | 1012.5 |
| 20260510044540 | 19 | 101 | 1.6 | 3.2 | 0.00 | 10.49 | 10.49 | 97 | 1012.6 |
| 20260510043047 | 19 | 188 | 0.0 | 1.6 | 0.00 | 10.49 | 10.49 | 97 | 1013.0 |
| 20260510041550 | 19 | 243 | 0.0 | 1.6 | 0.00 | 10.49 | 10.49 | 97 | 1013.1 |
| 20260510040045 | 19 | 158 | 0.0 | 0.0 | 0.00 | 10.49 | 10.49 | 97 | 1012.9 |
| 20260510034547 | 19 | 0 | 0.0 | 0.0 | 0.00 | 10.49 | 10.49 | 97 | 1013.1 |
| 20260510033058 | 19 | 0 | 0.0 | 0.0 | 0.00 | 10.49 | 10.49 | 96 | 1013.4 |
| 20260510031549 | 19 | 159 | 0.0 | 1.6 | 0.00 | 10.49 | 10.49 | 97 | 1013.7 |
| 20260510030043 | 20 | 0 | 0.0 | 1.6 | 0.00 | 10.49 | 10.49 | 96 | 1013.5 |
| 20260510024547 | 20 | 176 | 1.6 | 3.2 | 0.03 | 10.49 | 10.49 | 96 | 1013.4 |
| 20260510023041 | 20 | 266 | 0.0 | 1.6 | 0.03 | 10.49 | 10.49 | 97 | 1012.2 |
| 20260510021545 | 20 | 147 | 0.0 | 0.0 | 0.03 | 10.49 | 10.49 | 97 | 1012.2 |
| 20260510020047 | 20 | 0 | 0.0 | 1.6 | 0.03 | 10.49 | 10.49 | 96 | 1012.5 |
| 20260510014544 | 20 | 269 | 0.0 | 1.6 | 0.00 | 10.54 | 10.46 | 96 | 1012.1 |
| 20260510013044 | 20 | 0 | 0.0 | 1.6 | 0.00 | 10.54 | 10.46 | 96 | 1012.5 |
| 20260510011543 | 20 | 319 | 0.0 | 1.6 | 0.03 | 10.54 | 10.46 | 96 | 1011.8 |
| 20260510010045 | 20 | 0 | 0.0 | 1.6 | 0.03 | 10.54 | 10.46 | 96 | 1011.9 |
| 20260510004554 | 20 | 0 | 0.0 | 1.6 | 0.05 | 10.64 | 10.46 | 96 | 1012.0 |
| 20260510003056 | 20 | 0 | 0.0 | 1.6 | 0.08 | 10.64 | 10.46 | 96 | 1012.0 |
| 20260510001546 | 20 | 0 | 0.0 | 1.6 | 0.08 | 10.64 | 10.44 | 96 | 1012.2 |
| 20260510000052 | 20 | 0 | 0.0 | 0.0 | 0.08 | 10.64 | 10.44 | 96 | 1012.6 |
| 20260509234549 | 20 | 0 | 0.0 | 0.0 | 0.08 | 10.64 | 10.41 | 96 | 1012.5 |
| 20260509233040 | 20 | 0 | 0.0 | 1.6 | 0.08 | 10.64 | 10.39 | 96 | 1012.7 |
| 20260509231545 | 20 | 0 | 0.0 | 1.6 | 0.05 | 10.59 | 10.36 | 96 | 1012.0 |
| 20260509230044 | 20 | 0 | 0.0 | 1.6 | 0.05 | 10.59 | 10.36 | 96 | 1011.0 |
| 20260509224543 | 20 | 0 | 0.0 | 1.6 | 0.05 | 10.79 | 10.34 | 95 | 1011.8 |
| 20260509223046 | 20 | 139 | 0.0 | 3.2 | 0.08 | 10.74 | 10.31 | 95 | 1012.1 |
| 20260509221541 | 20 | 256 | 0.0 | 1.6 | 0.18 | 10.74 | 10.31 | 96 | 1012.1 |
| 20260509220054 | 20 | 257 | 0.0 | 3.2 | 0.23 | 10.74 | 10.31 | 95 | 1011.5 |
| 20260509214546 | 20 | 350 | 0.0 | 9.7 | 0.30 | 10.97 | 10.29 | 95 | 1010.4 |
| 20260509213044 | 20 | 96 | 1.6 | 4.8 | 0.28 | 10.92 | 10.24 | 95 | 1010.5 |
| 20260509211546 | 20 | 68 | 0.0 | 1.6 | 0.18 | 10.79 | 10.11 | 96 | 1010.9 |
| 20260509210041 | 20 | 340 | 0.0 | 1.6 | 0.20 | 10.74 | 10.08 | 95 | 1011.4 |
| 20260509204557 | 20 | 101 | 0.0 | 3.2 | 0.15 | 11.02 | 9.98 | 95 | 1011.1 |
| 20260509203046 | 20 | 0 | 0.0 | 3.2 | 0.18 | 11.00 | 9.96 | 95 | 1011.0 |
| 20260509201543 | 20 | 263 | 0.0 | 1.6 | 0.23 | 10.97 | 9.93 | 96 | 1011.8 |
| 20260509200045 | 20 | 47 | 0.0 | 1.6 | 0.25 | 10.92 | 9.88 | 95 | 1011.6 |
| 20260509194543 | 20 | 201 | 0.0 | 3.2 | 0.25 | 10.90 | 9.80 | 96 | 1012.0 |
| 20260509193050 | 20 | 276 | 0.0 | 4.8 | 0.36 | 10.85 | 9.75 | 96 | 1012.1 |
| 20260509191553 | 20 | 245 | 1.6 | 4.8 | 0.46 | 10.79 | 9.70 | 96 | 1011.3 |
| 20260509190047 | 20 | 121 | 0.0 | 3.2 | 0.46 | 10.69 | 9.63 | 96 | 1010.9 |
| 20260509184543 | 20 | 63 | 0.0 | 4.8 | 0.51 | 10.64 | 9.55 | 96 | 1011.4 |
| 20260509183044 | 20 | 232 | 0.0 | 4.8 | 0.51 | 10.49 | 9.40 | 96 | 1011.6 |
| 20260509181545 | 19 | 58 | 0.0 | 4.8 | 0.41 | 10.34 | 9.25 | 96 | 1012.2 |
| 20260509180043 | 19 | 104 | 1.6 | 3.2 | 0.36 | 10.24 | 9.14 | 96 | 1012.3 |
| 20260509174553 | 19 | 94 | 1.6 | 3.2 | 0.28 | 10.13 | 9.04 | 96 | 1012.7 |
| 20260509173052 | 19 | 107 | 0.0 | 4.8 | 0.15 | 9.98 | 8.89 | 96 | 1012.7 |
| 20260509171551 | 19 | 103 | 0.0 | 3.2 | 0.15 | 9.93 | 8.84 | 96 | 1012.5 |
| 20260509170045 | 18 | 139 | 0.0 | 1.6 | 0.08 | 9.86 | 8.76 | 96 | 1012.6 |
| 20260509164547 | 18 | 353 | 0.0 | 4.8 | 0.13 | 9.86 | 8.76 | 96 | 1012.7 |
| 20260509163048 | 18 | 27 | 0.0 | 6.4 | 0.18 | 9.83 | 8.74 | 95 | 1012.7 |
| 20260509161545 | 18 | 68 | 1.6 | 4.8 | 0.28 | 9.78 | 8.69 | 95 | 1012.8 |
| 20260509160044 | 18 | 47 | 1.6 | 9.7 | 0.43 | 9.78 | 8.69 | 96 | 1013.0 |
| 20260509154556 | 17 | 56 | 1.6 | 6.4 | 0.46 | 9.73 | 8.64 | 96 | 1013.5 |